DW0000 Weather Reports


time (UTC)temp
C
wind
direction
speed
KPH
gust
KPH
rain 1hr
cm
rain 24hr
cm
rain mn
cm
humidity
%
barometer
mb
20260503214005 14 143 3.2 4.8 0.00 0.00 0.00 82 1033.8
20260503213505 14 23 1.6 3.2 0.00 0.00 0.00 84 1033.9
20260503212504 13 315 1.6 4.8 0.00 0.00 0.00 84 1033.9
20260503212005 13 151 3.2 4.8 0.00 0.00 0.00 85 1033.8
20260503211505 13 303 0.0 4.8 0.00 0.00 0.00 85 1033.7
20260503210505 12 169 1.6 3.2 0.00 0.00 0.00 85 1033.9
20260503205505 12 296 1.6 3.2 0.00 0.00 0.00 87 1033.9
20260503204507 12 300 1.6 4.8 0.00 0.00 0.00 87 1034.2
20260503203505 11 154 3.2 4.8 0.00 0.00 0.00 87 1034.1
20260503203007 11 168 0.0 3.2 0.00 0.00 0.00 88 1034.0
20260503201506 11 103 3.2 4.8 0.00 0.00 0.00 88 1034.0
20260503201005 11 106 3.2 4.8 0.00 0.00 0.00 88 1033.9
20260503195506 11 29 0.0 3.2 0.00 0.00 0.00 88 1033.7
20260503195006 11 168 3.2 4.8 0.00 0.00 0.00 89 1033.6
20260503193005 11 74 3.2 8.0 0.00 0.00 0.00 89 1033.6
20260503192505 11 193 4.8 8.0 0.00 0.00 0.00 89 1033.4
20260503190007 11 137 4.8 8.0 0.00 0.00 0.00 89 1033.4
20260503184006 11 142 6.4 11.3 0.00 0.00 0.00 89 1033.2
20260503183504 11 147 6.4 11.3 0.00 0.00 0.00 88 1033.2
20260503181005 11 116 3.2 8.0 0.00 0.00 0.00 87 1032.9
20260503180507 11 38 4.8 8.0 0.00 0.00 0.00 87 1032.8
20260503180005 11 7 3.2 4.8 0.00 0.00 0.00 87 1032.8
20260503174506 11 16 3.2 4.8 0.00 0.00 0.00 87 1032.9
20260503173505 11 115 1.6 4.8 0.00 0.00 0.00 87 1032.7
20260503173004 11 16 3.2 4.8 0.00 0.00 0.00 87 1032.7
20260503172505 11 61 4.8 8.0 0.00 0.00 0.00 87 1032.5
20260503171505 11 59 4.8 4.8 0.00 0.00 0.00 86 1032.7
20260503171004 11 35 4.8 8.0 0.00 0.00 0.00 86 1032.6
20260503170506 11 90 4.8 8.0 0.00 0.00 0.00 86 1032.7
20260503151007 11 179 4.8 11.3 0.00 0.00 0.00 86 1032.9
20260503150506 11 160 4.8 8.0 0.00 0.00 0.00 86 1033.1
20260503130506 11 49 1.6 4.8 0.00 0.00 0.00 86 1033.8
20260503090506 12 326 3.2 4.8 0.00 0.00 0.00 79 1033.0
20260503080506 12 334 1.6 3.2 0.00 0.00 0.00 78 1032.7
20260503072506 13 331 3.2 4.8 0.00 0.00 0.00 77 1032.6
20260503071006 13 358 3.2 3.2 0.00 0.00 0.00 77 1032.5
20260503054507 14 208 3.2 12.9 0.00 0.00 0.00 73 1032.1
20260503053008 15 208 8.0 12.9 0.00 0.00 0.00 72 1031.8
20260503052005 15 204 9.7 14.5 0.00 0.00 0.00 71 1032.0
20260503045005 16 212 11.3 22.5 0.00 0.00 0.00 69 1031.9
20260503044507 16 215 11.3 20.9 0.00 0.00 0.00 69 1031.9
20260503043005 16 210 12.9 20.9 0.00 0.00 0.00 67 1031.8
20260503042508 16 203 12.9 19.3 0.00 0.00 0.00 67 1031.8
20260503040007 17 207 8.0 19.3 0.00 0.00 0.00 66 1031.9
20260503035505 17 203 8.0 20.9 0.00 0.00 0.00 65 1032.0
20260503033505 17 221 12.9 19.3 0.00 0.00 0.00 63 1031.8
20260503032006 18 217 9.7 16.1 0.00 0.00 0.00 63 1031.9
20260503031006 18 213 9.7 20.9 0.00 0.00 0.00 62 1031.8
20260503025006 18 235 8.0 14.5 0.00 0.00 0.00 62 1031.8
20260503023506 18 205 9.7 16.1 0.00 0.00 0.00 61 1031.8
20260503023007 19 211 9.7 12.9 0.00 0.00 0.00 59 1032.0
20260503022006 19 273 6.4 8.0 0.00 0.00 0.00 62 1031.9
20260503021507 18 212 4.8 9.7 0.00 0.00 0.00 59 1032.0
20260503021005 19 187 3.2 9.7 0.00 0.00 0.00 58 1032.1
20260503020505 19 323 1.6 3.2 0.00 0.00 0.00 59 1032.2
20260503015507 18 226 1.6 4.8 0.00 0.00 0.00 58 1032.2
20260503015006 18 34 4.8 8.0 0.00 0.00 0.00 60 1032.1
20260503014006 18 44 4.8 11.3 0.00 0.00 0.00 58 1032.3
20260503013507 18 60 4.8 11.3 0.00 0.00 0.00 59 1032.4
20260503013006 18 63 6.4 9.7 0.00 0.00 0.00 58 1032.4
20260503012506 18 45 6.4 16.1 0.00 0.00 0.00 60 1032.4
20260503012007 18 39 8.0 16.1 0.00 0.00 0.00 60 1032.5
20260503011506 18 86 4.8 11.3 0.00 0.00 0.00 60 1032.8
20260503010506 18 82 3.2 9.7 0.00 0.00 0.00 58 1032.7
20260503005505 18 34 9.7 16.1 0.00 0.00 0.00 61 1032.6
20260503004504 17 85 3.2 8.0 0.00 0.00 0.00 61 1032.9
20260503003006 18 85 6.4 12.9 0.00 0.00 0.00 59 1033.2
20260503001507 18 62 8.0 14.5 0.00 0.00 0.00 61 1033.4
20260503001007 18 47 4.8 14.5 0.00 0.00 0.00 59 1033.6
20260503000506 18 54 8.0 11.3 0.00 0.00 0.00 62 1033.5
20260503000006 17 6 3.2 14.5 0.00 0.00 0.00 58 1033.7
20260502235505 18 102 4.8 14.5 0.00 0.00 0.00 61 1033.5
20260502235007 18 18 4.8 12.9 0.00 0.00 0.00 62 1033.8
20260502234505 17 92 4.8 12.9 0.00 0.00 0.00 60 1033.9
20260502233506 17 87 8.0 12.9 0.00 0.00 0.00 61 1034.1
20260502232504 17 54 9.7 12.9 0.00 0.00 0.00 60 1034.1
20260502232006 17 94 6.4 11.3 0.00 0.00 0.00 63 1034.4
20260502225005 17 21 6.4 9.7 0.00 0.00 0.00 68 1034.3
20260502224506 16 8 3.2 9.7 0.00 0.00 0.00 67 1034.2
20260502223005 16 95 4.8 9.7 0.00 0.00 0.00 70 1034.1
20260502222006 16 68 6.4 9.7 0.00 0.00 0.00 71 1034.1
20260502221006 15 115 3.2 8.0 0.00 0.00 0.00 74 1034.2
20260502220504 15 101 3.2 8.0 0.00 0.00 0.00 75 1034.0
20260502220007 15 132 3.2 8.0 0.00 0.00 0.00 75 1034.1
20260502215004 15 95 3.2 8.0 0.00 0.00 0.00 78 1034.2